Presure
195 304 298 306 112 297 299 248 260 293 296 287 284 303 301 300 281 290 274 282 285 284 296 322 360 278 331 271 247 255 240 256 248 246 240 233 225 226 225 224 221 219 218 217 219 223 225 217 243 249 187 235 232 224
249 308 283 298 233 302 136 142 296 238 295 300 283 294 309 286 295 282 279 287 290 282 295 364 361 361 352 295 257 257 252 226 244 246 244 235 231 226 225 223 225 220 225 219 224 217 219 217 249 245 243 235 234 217
308 294 300 295 166 172 306 119 301 301 328 293 300 299 297 287 294 289 295 303 299 299 404 367 348 344 344 339 277 263 261 243 262 246 237 235 233 230 226 224 228 229 221 225 231 219 214 224 245 246 235 238 238 232
205 186 224 282 298 328 322 317 307 314 244 308 309 303 290 292 295 310 316 329 525 495 385 359 339 330 322 338 315 263 262 253 253 236 233 242 238 233 228 223 222 227 230 237 222 224 225 221 245 237 161 235 235 229
309 310 295 194 290 222 316 201 332 267 298 306 312 293 297 291 309 326 339 649 494 421 365 350 336 330 327 340 342 296 255 251 247 259 255 232 246 239 239 236 236 234 238 221 230 219 201 221 245 241 236 232 223 235
186 110 289 128 345 329 326 312 310 310 300 306 294 293 290 298 313 345 578 475 411 371 345 330 326 334 329 319 319 331 287 259 249 243 235 240 234 234 236 238 237 227 243 227 217 221 217 223 219 246 239 245 235 214
367 121 186 289 342 327 327 344 314 300 307 315 294 287 294 295 302 314 436 397 369 348 326 322 312 312 315 315 313 320 326 272 257 247 241 159 223 239 236 244 231 229 234 228 228 219 220 212 226 229 250 244 216 217
126 354 126 222 338 349 213 316 312 307 299 293 291 282 291 289 312 355 380 369 345 332 322 310 309 300 304 310 314 313 318 327 274 260 249 229 240 245 234 245 221 228 231 232 221 216 220 221 219 230 239 239 225 218
357 343 342 290 271 329 320 303 306 296 293 284 285 283 287 289 300 387 374 356 332 318 313 314 302 312 308 301 309 308 314 316 317 313 264 253 244 234 243 220 224 218 217 228 211 216 217 223 219 225 228 241 253 242
349 134 315 320 319 298 324 300 289 300 280 291 278 295 274 288 287 337 357 326 336 268 311 310 307 301 303 300 294 289 293 291 302 312 322 272 245 234 238 226 224 223 215 222 216 217 222 222 226 226 233 236 252 210
285 339 343 337 326 104 296 305 291 281 274 241 278 272 281 283 283 314 333 344 335 321 316 307 304 295 292 289 281 284 286 284 288 294 299 309 318 259 234 248 234 232 231 225 215 217 222 222 222 231 226 234 250 234
251 338 337 331 328 301 300 295 292 281 275 284 270 276 276 283 274 296 335 326 325 327 314 308 300 293 292 281 282 277 276 276 275 279 284 290 298 305 289 244 235 235 228 230 233 227 226 223 229 233 230 243 269 246
330 329 342 318 317 297 300 300 279 279 278 281 275 242 279 281 282 302 320 290 346 307 326 308 301 292 281 278 275 270 267 266 267 268 267 268 276 282 291 299 306 250 242 236 232 231 233 224 234 235 241 257 257 253
329 323 328 324 309 303 282 284 279 276 277 278 273 273 272 272 278 272 294 300 281 325 308 299 317 294 282 272 272 265 263 261 264 256 255 253 299 261 271 277 281 296 310 260 249 246 245 247 213 243 264 259 267 257
318 321 319 311 298 286 304 285 275 267 273 242 270 271 273 266 269 274 164 283 238 160 278 332 303 284 273 273 264 266 259 258 256 251 250 253 272 285 289 295 299 265 271 279 280 268 267 253 268 223 258 267 251 212
313 316 305 319 292 293 280 280 276 263 269 265 264 266 264 264 270 277 271 260 258 300 294 292 286 328 280 277 267 262 260 257 249 244 231 238 251 237 271 276 283 290 278 246 258 259 244 262 245 244 271 238 263 253
307 314 343 304 298 293 281 271 275 264 266 264 258 267 263 259 263 257 267 278 258 274 288 298 307 258 377 289 279 272 266 263 254 250 243 241 218 246 240 260 276 239 276 285 251 256 238 252 249 259 272 268 249 249
301 295 313 305 287 285 279 275 267 271 265 260 264 262 259 257 236 267 271 268 279 274 273 269 304 301 274 292 366 295 273 265 262 256 251 248 242 238 240 239 234 245 263 263 257 266 271 268 265 256 236 236 224 231
297 295 304 292 289 282 276 273 272 259 262 267 264 260 256 258 261 266 267 259 262 262 253 269 275 298 285 294 275 260 317 318 279 271 260 260 255 253 249 244 240 227 219 228 235 248 264 264 262 260 195 229 235 243
300 292 306 287 295 278 269 266 265 258 258 264 258 258 256 261 259 267 151 189 265 256 252 253 262 285 286 284 281 288 287 262 261 292 304 297 270 263 260 254 255 255 250 244 238 233 228 226 227 231 236 239 232 223
292 288 299 304 288 276 273 266 262 266 257 256 260 258 265 259 193 164 260 262 259 257 265 267 261 270 289 262 276 277 270 278 286 295 288 255 255 286 298 298 273 267 259 255 251 255 252 242 247 244 240 237 236 234
285 291 297 288 278 279 293 272 270 261 268 260 267 261 264 256 225 258 261 264 263 264 269 270 272 267 277 284 275 276 266 275 274 274 279 286 290 293 293 267 257 265 280 293 299 281 272 263 257 256 253 249 247 238
290 287 286 297 288 287 268 274 272 273 272 266 268 270 265 164 196 260 262 268 270 275 264 273 271 263 260 306 289 276 275 274 273 282 277 264 268 278 281 286 290 292 302 304 285 281 260 270 278 306 296 284 272 267
289 285 283 280 283 278 287 277 275 272 269 267 268 268 265 265 261 263 264 271 278 279 274 271 267 269 264 277 272 280 270 273 280 269 275 278 283 276 263 274 273 275 295 304 313 333 358 355 327 298 268 261 255 266
295 285 282 274 272 285 282 282 281 283 277 273 277 270 272 272 274 267 265 268 268 271 278 269 274 280 308 326 308 272 284 282 270 277 274 272 281 280 282 285 280 271 290 288 301 315 331 343 341 335 314 303 365 347
309 293 281 276 275 277 284 287 283 273 276 287 273 275 277 275 287 283 275 278 279 278 276 278 275 283 268 289 299 291 287 299 293 277 279 282 270 280 280 267 279 284 292 295 309 315 329 337 334 324 328 324 361 360
326 269 285 193 275 279 278 278 283 286 279 276 284 286 281 278 282 281 283 273 275 274 276 276 267 272 279 305 302 305 308 299 297 286 281 280 282 281 276 276 277 294 292 306 314 336 349 330 325 367 373 367 361 362
140 161 152 171 286 172 135 261 150 264 265 278 263 280 277 274 278 280 273 273 277 284 272 275 285 271 335 340 278 293 310 312 303 302 288 292 292 288 282 290 293 295 306 315 336 335 317 395 406 355 343 338 336 338
356 338 316 314 297 280 276 278 281 282 287 282 280 278 274 274 276 267 269 280 282 278 274 283 283 322 320 300 309 292 293 310 312 306 302 302 306 309 294 298 305 316 334 332 367 382 364 343 332 325 317 312 313 315
390 343 332 314 298 293 283 285 278 284 286 280 275 274 272 277 283 282 281 287 286 279 283 280 313 316 307 317 306 293 312 308 301 298 301 307 307 302 309 320 332 350 361 367 353 336 323 311 306 303 298 295 295 295
256 303 346 328 316 292 285 284 281 281 281 281 277 276 268 272 283 285 281 284 291 284 287 285 313 300 300 313 307 301 302 309 314 306 298 302 309 317 318 347 350 337 338 327 317 308 300 293 287 285 282 285 400 340
322 542 368 345 328 296 293 280 280 283 289 279 277 282 273 270 285 280 283 284 287 288 291 288 289 335 324 323 317 315 310 305 305 312 306 319 295 348 339 308 361 333 318 307 292 287 290 438 437 428 443 425 423 461
525 534 524 344 335 302 275 280 292 290 286 284 287 286 290 286 281 295 286 286 291 294 288 283 319 317 313 308 306 305 312 305 310 335 354 341 330 383 340 324 314 314 291 290 353 437 454 457 418 420 439 418 394 458
Wind_Speed
63 88 85 73 43 72 65 58 55 58 55 51 51 44 43 38 46 43 50 51 52 49 48 42 29 24 40 42 32 37 34 37 35 36 34 29 26 25 24 24 23 22 22 21 19 19 20 21 16 23 19 24 21 21
77 79 75 72 62 62 57 43 54 55 54 48 49 45 36 45 43 45 47 51 54 52 52 42 35 35 32 54 41 44 41 20 34 35 36 32 31 28 27 25 24 23 24 22 21 22 22 23 16 21 24 21 23 14
78 75 70 69 60 48 55 41 50 51 36 46 42 41 41 46 45 45 47 51 50 51 42 39 36 38 34 35 54 49 44 38 43 37 34 35 34 32 29 28 28 27 25 25 23 22 23 19 16 19 21 23 23 20
81 64 55 60 62 49 48 46 47 44 52 39 38 38 43 47 48 48 50 51 23 37 36 37 36 35 33 34 50 47 50 43 41 35 34 40 38 36 33 32 31 30 27 25 23 22 22 19 18 18 19 18 19 15
67 63 64 59 54 37 46 47 36 39 45 37 33 40 42 50 50 53 50 28 31 35 31 29 32 31 27 25 23 55 43 44 43 44 44 36 42 39 38 38 33 29 25 24 24 25 22 18 15 19 22 19 12 19
71 24 64 53 44 45 43 43 42 39 40 33 37 39 45 50 49 50 31 35 33 34 29 26 21 17 20 22 25 24 53 50 47 44 38 42 40 38 39 34 28 30 30 29 27 23 22 18 16 18 21 26 19 10
47 49 34 45 42 43 39 23 35 42 33 27 35 39 45 46 45 42 35 33 33 29 26 24 20 17 18 18 21 23 26 54 51 47 43 26 38 41 38 33 31 32 32 31 26 26 24 23 16 16 22 24 16 13
60 46 53 32 38 29 34 32 30 31 32 32 31 40 42 43 42 11 22 31 29 28 24 20 19 19 18 19 18 22 23 24 53 53 47 38 41 41 35 34 35 34 34 32 29 29 26 23 22 19 18 22 19 18
45 44 41 36 35 32 31 36 28 34 31 33 32 38 38 40 38 11 24 26 22 19 20 20 19 20 20 23 21 19 15 15 22 29 53 47 45 40 40 30 38 39 37 35 32 30 28 26 25 22 21 22 28 28
43 50 35 34 38 38 28 33 37 28 35 27 33 30 36 34 32 14 15 4 22 13 16 18 21 22 22 20 18 20 20 20 16 16 18 50 46 44 44 42 44 44 40 38 35 32 30 29 27 26 26 26 30 28
41 40 34 32 33 35 38 27 31 37 38 26 31 34 31 29 29 14 3 11 16 15 16 18 21 20 22 23 22 22 19 19 16 16 17 19 23 51 43 48 46 46 43 41 36 35 34 33 31 31 29 31 31 32
46 37 34 30 33 37 35 32 33 38 36 26 32 30 30 24 28 20 2 4 4 13 12 17 19 21 24 23 25 22 21 20 17 16 16 18 20 25 41 49 46 46 44 42 42 40 38 36 35 34 34 36 36 34
42 37 32 34 36 38 36 33 37 38 33 28 28 31 27 21 21 11 14 7 14 4 13 13 19 24 24 25 26 25 22 20 18 14 13 14 18 22 26 30 35 54 50 47 44 43 42 39 41 39 38 38 35 37
39 36 34 35 37 36 39 36 36 37 32 27 29 28 27 21 17 18 10 12 6 6 8 12 19 24 27 23 27 25 22 21 18 18 17 18 18 20 23 28 31 32 34 52 52 51 49 49 37 42 40 37 37 38
39 34 35 37 40 42 40 38 39 42 35 34 32 30 25 24 18 17 28 9 14 29 10 14 19 24 25 28 25 28 24 24 22 22 21 19 18 17 16 13 13 32 34 36 41 44 44 44 40 40 39 39 41 37
38 35 37 40 41 40 42 42 40 43 38 36 37 34 29 26 22 16 17 19 22 11 7 9 17 25 29 33 31 29 30 28 25 26 26 26 21 28 19 20 18 19 31 40 40 41 41 40 44 45 41 41 45 44
38 36 43 41 42 44 43 45 43 44 42 40 40 36 33 28 26 20 19 19 21 10 10 10 11 18 24 35 37 35 33 30 29 29 30 31 34 28 31 21 24 33 26 29 41 44 41 44 45 45 44 42 44 42
41 41 45 45 45 46 46 47 46 45 45 45 41 38 38 32 28 27 22 21 19 18 14 16 13 12 18 19 30 39 38 37 38 36 35 35 35 36 35 36 37 33 30 34 37 38 40 44 46 44 41 43 46 44
44 44 46 46 48 49 49 48 47 47 45 44 42 40 39 36 34 33 26 25 23 25 26 19 15 15 17 17 21 24 20 28 42 44 41 43 41 41 40 40 42 44 44 44 44 42 42 45 47 49 38 49 48 48
47 48 51 50 54 53 51 51 50 50 48 47 44 45 43 41 36 37 34 32 27 29 30 28 24 22 21 20 20 20 23 29 29 27 29 37 49 49 49 48 48 48 48 49 50 51 51 50 49 51 52 52 50 51
51 51 52 56 55 55 54 54 54 55 51 49 48 46 48 43 39 36 34 33 32 35 33 30 29 28 28 26 26 26 26 25 25 23 28 36 36 36 38 44 59 61 58 56 54 57 57 53 54 56 57 58 57 56
54 54 55 55 54 55 63 57 57 54 56 53 55 50 48 46 41 42 37 39 41 37 33 31 28 31 32 34 31 32 30 31 31 31 30 29 30 32 36 43 46 47 49 53 58 68 71 68 65 64 63 63 62 59
56 55 55 59 59 60 56 58 58 58 62 58 54 51 47 38 40 42 40 43 45 42 36 35 33 35 37 38 38 37 38 37 36 36 36 36 35 35 35 37 38 40 41 44 52 55 58 58 57 66 73 77 79 77
59 58 58 58 59 59 64 61 59 57 57 53 49 48 48 47 44 43 44 49 49 42 38 38 37 39 40 39 38 37 39 39 39 38 39 38 39 39 40 40 41 41 42 42 44 44 44 46 54 61 63 59 56 54
64 61 59 57 56 59 60 61 59 62 58 53 54 52 54 50 49 44 46 48 44 43 44 40 41 43 47 44 44 40 43 45 43 45 43 42 43 43 44 44 44 44 45 45 48 49 49 47 48 51 58 60 51 58
64 61 58 58 58 58 60 60 57 53 55 56 53 54 52 48 51 51 52 48 46 44 43 43 43 43 38 40 41 43 44 49 49 47 47 47 45 47 46 44 48 47 48 49 51 52 53 50 50 49 51 53 51 50
59 49 61 36 60 60 57 54 54 53 51 50 51 51 49 46 47 47 47 44 44 42 44 43 40 41 41 46 45 48 50 48 49 49 50 49 49 49 48 50 51 54 53 57 56 59 55 50 49 51 48 47 46 46
34 32 34 39 60 33 30 50 34 48 46 47 43 44 43 43 44 43 43 43 42 43 41 42 43 41 49 49 41 41 46 50 51 52 52 55 54 52 51 53 54 55 59 60 63 56 48 53 48 43 42 43 42 39
49 49 55 57 60 60 55 54 51 49 49 46 44 43 43 42 41 40 40 43 43 41 40 41 40 42 42 40 43 41 43 46 47 49 51 55 57 58 52 54 57 60 65 59 64 58 48 44 42 40 41 43 42 41
56 49 59 63 64 61 59 54 51 47 46 45 43 42 41 39 40 43 43 42 41 40 40 40 38 41 41 43 42 42 44 46 47 49 52 54 55 55 57 60 64 65 62 57 50 46 42 42 45 43 44 46 46 45
34 35 53 62 62 55 55 53 48 44 43 43 42 41 38 37 39 40 40 38 38 39 39 37 36 37 38 40 42 43 45 47 48 47 49 52 55 58 58 63 60 54 51 46 43 43 44 46 48 49 50 52 42 46
39 31 52 59 59 56 51 45 43 42 42 41 40 39 38 38 38 37 37 37 38 38 37 36 36 30 33 36 42 43 42 43 46 49 48 55 48 58 55 48 50 49 47 44 44 46 48 41 37 36 31 32 31 30
24 27 32 57 58 48 42 43 41 40 40 39 39 38 37 37 36 36 34 36 37 36 35 35 33 34 35 36 39 40 44 42 46 53 54 50 48 50 44 44 45 45 43 46 48 41 38 33 33 31 28 30 30 24
Wind_Direction
302 308 309 309 314 311 310 314 312 307 306 310 313 307 307 311 315 319 320 321 320 319 315 309 276 266 227 233 233 233 237 205 205 200 200 205 208 203 200 203 206 211 215 219 221 224 230 244 229 215 236 241 248 253
301 306 306 306 307 307 314 320 305 306 303 306 310 307 307 310 311 315 318 316 311 309 304 273 255 243 229 223 225 232 230 235 220 209 205 208 211 212 212 213 213 220 221 225 225 234 240 246 227 226 235 247 254 248
302 303 303 304 302 309 299 313 299 296 288 305 302 303 305 307 309 311 313 309 301 296 237 233 237 238 236 227 219 223 226 233 210 216 218 216 215 216 218 220 221 221 226 228 228 236 246 250 242 233 246 251 256 266
296 292 302 300 300 291 292 293 294 292 306 298 298 302 306 305 309 313 313 306 218 211 217 217 222 230 232 239 217 215 221 223 218 229 223 215 216 219 220 222 225 226 226 227 233 235 243 252 242 243 231 250 262 279
297 296 297 297 294 295 289 297 287 290 297 297 297 303 305 304 315 318 317 187 171 193 192 200 210 220 226 221 215 217 213 218 222 214 214 221 215 219 220 221 220 226 226 229 224 234 236 253 247 246 251 256 251 277
290 286 294 295 282 282 284 285 285 282 293 296 302 304 306 309 323 325 149 141 162 168 178 190 195 188 185 197 209 213 216 216 219 221 223 220 222 222 222 223 221 228 223 226 236 238 241 250 259 259 256 254 251 232
277 292 285 280 277 278 280 261 279 285 287 298 301 304 306 315 327 331 140 149 154 162 168 172 176 180 186 194 206 209 210 216 216 220 221 241 224 223 225 221 221 228 226 228 224 232 236 248 253 272 258 250 231 241
282 270 292 284 274 268 289 271 271 278 288 296 303 301 309 316 330 350 140 148 154 159 162 173 178 183 186 187 189 198 205 209 217 219 221 220 223 225 227 221 224 226 228 226 222 232 236 244 246 261 267 257 259 247
266 265 267 271 274 264 265 270 269 276 283 293 297 299 312 317 329 136 149 153 162 170 176 179 183 184 185 188 188 188 189 198 215 219 222 220 222 224 225 224 226 229 230 229 228 233 237 245 247 259 264 274 262 260
259 287 264 263 258 261 240 260 269 261 280 286 292 304 305 318 326 0 152 163 174 327 187 182 186 188 185 181 177 188 189 197 208 218 223 224 220 223 222 219 222 228 232 232 232 238 241 246 254 258 266 279 272 242
258 256 254 247 244 306 253 241 257 271 278 287 287 294 307 316 321 343 22 190 194 202 195 197 194 197 189 182 190 195 192 199 207 214 214 217 217 224 228 224 225 230 232 234 238 240 243 248 252 263 260 273 267 253
267 251 246 235 227 245 242 243 242 260 270 271 282 290 300 313 312 336 233 41 205 221 217 213 206 203 192 195 195 195 199 204 207 215 222 223 224 225 227 228 231 232 235 236 238 241 246 247 256 260 259 272 257 255
246 245 238 233 226 237 235 228 250 259 263 268 274 288 294 310 320 358 19 328 235 161 250 234 218 205 207 205 203 207 207 209 209 209 220 234 236 235 232 230 230 233 235 237 238 240 244 246 253 257 264 261 256 256
241 239 232 224 222 224 239 237 242 252 258 260 271 277 285 293 305 304 2 15 295 255 214 203 229 214 215 219 213 221 216 216 212 210 214 218 224 235 239 233 227 230 227 235 239 243 245 247 254 255 256 252 246 246
236 232 225 219 224 232 215 224 236 252 255 264 264 268 273 282 291 289 289 325 317 296 265 236 213 210 218 221 226 224 224 220 218 217 215 221 232 234 231 229 226 229 229 230 235 238 241 243 241 248 246 243 244 253
230 226 224 210 223 220 228 228 230 250 248 255 261 264 269 275 284 288 286 280 290 9 319 270 257 236 228 219 226 226 228 229 227 229 227 228 228 234 239 238 231 229 230 236 235 236 241 237 241 247 245 250 245 249
226 221 205 213 211 211 222 234 226 241 244 247 254 259 266 271 278 274 282 292 275 272 346 322 292 249 241 231 236 238 239 239 238 239 237 235 241 233 236 239 237 239 232 234 237 239 245 243 249 254 253 251 252 255
223 222 212 208 217 217 221 225 236 232 240 250 252 257 264 270 277 278 282 278 284 274 264 263 319 285 247 252 243 240 244 244 243 243 245 246 244 242 240 238 243 240 246 247 248 244 243 244 247 250 247 249 252 252
221 218 210 215 213 217 221 225 229 243 245 245 251 257 264 269 272 274 274 267 269 274 270 278 278 302 274 265 250 249 257 250 247 246 251 250 252 252 250 248 247 251 256 253 249 249 251 253 255 255 266 253 255 258
219 220 212 217 211 218 227 229 233 243 246 244 252 256 261 264 269 271 280 282 269 265 268 271 277 298 286 272 262 259 256 251 253 250 249 249 251 254 256 259 258 256 255 253 253 255 258 259 259 258 256 256 262 262
219 221 214 212 215 220 224 230 235 234 245 249 250 255 255 262 268 273 268 268 266 266 269 273 273 280 280 265 272 266 256 260 262 260 256 255 256 252 251 252 253 255 259 260 260 260 262 258 260 259 260 261 262 263
220 219 217 221 223 225 217 229 228 238 236 245 243 252 254 256 263 263 265 269 268 267 268 272 274 269 271 267 268 267 264 265 264 264 263 261 260 259 258 258 260 260 258 257 257 257 258 261 261 262 263 263 264 261
219 220 222 218 221 222 231 229 234 236 235 241 245 248 252 262 262 260 266 268 267 267 265 271 268 264 268 258 258 265 268 268 268 269 267 265 266 268 268 270 269 267 270 265 263 264 263 262 260 256 258 260 260 262
219 220 222 223 224 229 227 231 235 238 242 246 247 249 251 252 254 258 261 264 265 269 269 268 266 267 265 267 264 263 265 268 269 268 272 272 273 269 266 269 270 271 281 284 285 293 285 273 261 259 263 264 264 262
219 221 221 225 228 226 231 235 236 236 241 244 246 248 250 253 255 255 256 258 261 265 268 266 267 270 274 264 252 264 260 260 267 267 269 271 273 272 274 276 274 274 282 281 288 291 290 281 271 264 259 259 263 257
223 221 223 226 227 229 232 233 234 237 240 240 243 245 247 249 251 252 254 257 260 262 264 266 266 269 265 267 265 263 265 263 261 267 268 269 272 274 276 276 279 280 284 286 292 293 290 282 275 267 265 261 261 258
227 225 223 234 228 230 231 234 236 236 237 239 241 243 245 247 249 250 254 256 259 260 262 264 264 266 267 265 265 264 261 264 265 266 269 272 273 275 277 280 283 287 287 291 293 295 290 277 273 276 270 266 264 262
247 243 246 242 227 244 256 235 255 238 240 240 244 244 246 248 251 252 252 255 259 261 261 263 264 265 258 261 267 267 267 265 267 267 270 272 275 277 279 281 284 288 290 292 294 290 279 285 278 270 266 263 260 256
234 225 226 225 226 226 227 231 232 234 236 237 239 241 243 246 249 252 257 257 257 259 262 265 266 259 259 265 265 268 271 270 269 270 274 276 279 280 284 287 288 290 293 291 291 287 281 278 273 267 263 260 258 253
252 249 218 219 221 222 223 225 229 230 232 235 236 239 242 246 249 251 254 256 258 260 262 263 264 265 266 265 268 271 270 270 272 274 277 279 282 286 288 292 294 293 292 290 285 282 278 273 270 267 263 260 258 255
246 238 216 215 217 220 218 222 225 226 230 234 236 239 241 246 249 251 254 257 260 261 263 266 266 267 269 266 268 271 273 274 276 280 283 286 290 292 292 293 292 292 290 287 284 279 276 273 271 269 266 264 258 255
236 235 211 210 214 216 218 221 224 225 228 231 235 239 242 246 249 252 256 259 261 263 266 267 270 258 262 262 266 272 278 281 283 286 289 292 286 292 292 292 291 290 291 288 284 282 281 283 277 274 264 258 255 246
214 212 217 206 212 217 216 221 223 225 228 232 235 238 239 244 249 252 254 257 261 264 266 270 263 266 271 276 279 282 285 289 291 291 291 292 293 296 294 295 295 294 289 290 293 292 288 280 272 269 252 244 244 232